[Iaude] MPEC W29: 2016 WS [a=2.49,e=0.55,i=4.2,H=24.5]

mpec at si.edu mpec at si.edu
Mon Nov 21 10:01:47 EST 2016


M.P.E.C. 2016-W29                                Issued 2016 Nov. 21, 14:58 UT
 
     The Minor Planet Electronic Circulars contain information on unusual
         minor planets and routine data on comets.  They are published
    on behalf of Division F of the International Astronomical Union by the
          Minor Planet Center, Smithsonian Astrophysical Observatory,
                          Cambridge, MA 02138, U.S.A.

             Prepared using the Tamkin Foundation Computer Network

                              MPC at CFA.HARVARD.EDU
            URL http://www.minorplanetcenter.net/    ISSN 1523-6714


                                    2016 WS
 
Observations:
     K16W00S* C2016 11 18.37157 03 32 40.20 +14 01 45.6          20.3 VqEW029G96
     K16W00S  C2016 11 18.37587 03 32 41.02 +14 01 57.6          20.0 VqEW029G96
     K16W00S  C2016 11 18.38022 03 32 41.91 +14 02 09.2          20.4 VqEW029G96
     K16W00S  C2016 11 18.38451 03 32 42.76 +14 02 21.7          20.6 VqEW029G96
     K16W00S KC2016 11 18.44454 03 32 54.75 +14 05 05.2          20.4 RoEW029291
     K16W00S KC2016 11 18.44821 03 32 55.52 +14 05 14.7          20.5 RoEW029291
     K16W00S KC2016 11 18.45186 03 32 56.25 +14 05 25.2          20.2 RoEW029291
     K16W00S  C2016 11 18.45948 03 32 57.80 +14 05 45.9          20.9 VqEW029G96
     K16W00S  C2016 11 18.46159 03 32 58.24 +14 05 51.0          21.0 VqEW029G96
     K16W00S  C2016 11 18.46388 03 32 58.71 +14 05 57.7          21.0 VqEW029G96
     K16W00S KC2016 11 19.20450 03 35 46.25 +14 40 38.4          21.0 RoEW029291
     K16W00S KC2016 11 19.20564 03 35 46.48 +14 40 41.6          20.8 RoEW029291
     K16W00S KC2016 11 19.20681 03 35 46.69 +14 40 44.9          21.1 RoEW029291
     K16W00S  C2016 11 19.23784 03 35 52.95 +14 42 13.7          20.5 VqEW029G96
     K16W00S  C2016 11 19.24041 03 35 53.40 +14 42 21.3          20.8 VqEW029G96
     K16W00S  C2016 11 19.24271 03 35 53.87 +14 42 27.2          20.9 VqEW029G96
     K16W00S  C2016 11 19.24548 03 35 54.42 +14 42 35.9          20.5 VqEW029G96
     K16W00S  C2016 11 19.26899 03 35 59.10 +14 43 44.0          20.7 RoEW029926
     K16W00S  C2016 11 19.27787 03 36 00.84 +14 44 08.3          21.0 RoEW029926
     K16W00S  C2016 11 19.28544 03 36 02.39 +14 44 30.3          21.1 RoEW029926
     K16W00S "C2016 11 19.29426703 36 03.87 +14 44 53.8          21.3 RtEW029705
     K16W00S "C2016 11 19.29528103 36 04.07 +14 44 56.6          21.4 RtEW029705
     K16W00S "C2016 11 19.29629503 36 04.27 +14 44 59.6          21.4 RtEW029705
     K16W00S  C2016 11 20.40832 03 40 12.98 +15 37 57.7          20.8 VqEW029G96
     K16W00S KC2016 11 20.41487 03 40 14.36 +15 38 17.3          20.9 RoEW029291
     K16W00S  C2016 11 20.41678 03 40 14.78 +15 38 21.7          20.1 VqEW029G96
     K16W00S KC2016 11 20.41833 03 40 15.11 +15 38 27.2          20.9 RoEW029291
     K16W00S KC2016 11 20.42177 03 40 15.84 +15 38 37.0          20.9 RoEW029291
 
Observer details:
291 LPL/Spacewatch II.  Observer T. H. Bressi.  1.8-m f/2.7 reflector + CCD.
705 Apache Point.  Observers K. Nault, M. Hammergren, M. Brucker.  Measurer
    K. Nault.  3.5-m f/10 reflector + CCD.
926 Tenagra II Observatory.  Observers M. Schwartz, P. R. Holvorcem.  Measurer
    M. Schwartz.  0.81-m f/7 Ritchey-Chretien + CCD.
G96 Mt. Lemmon Survey.  Observer G. J. Leonard.  Measurers E. J. Christensen,
    D. C. Fuls, A. R. Gibbs, A. D. Grauer, J. A. Johnson, R. A. Kowalski,
    S. M. Larson, G. J. Leonard, R. G. Matheny, R. L. Seaman, F. C. Shelly.
    1.5-m reflector + 10K CCD.
 
Orbital elements:
2016 WS                                                  Earth MOID = 0.1335 AU
Epoch 2017 Feb. 16.0 TT = JDT 2457800.5                 MPC
M  19.24788              (2000.0)            P               Q
n   0.25142190     Peri.    4.90345     +0.35164982     -0.93380804
a   2.4861881      Node    64.52090     +0.85638222     +0.29245521
e   0.5499776      Incl.    4.18734     +0.37808980     +0.20608857
P   3.92           H   24.5           G   0.15           U   7
Residuals in seconds of arc
161118 G96  0.1+  0.2-    161119 291  0.1+  0.1-    161119 705  0.4+  0.1+
161118 G96  0.3-  0.0     161119 291  0.1+  0.2-    161119 705  0.4+  0.0
161118 G96  0.2+  0.3-    161119 291  0.3-  0.3-    161119 705  0.4+  0.2+
161118 G96  0.3+  0.5+    161119 G96  0.8+  0.1+    161120 G96  0.2+  0.4-
161118 291  0.2-  0.1-    161119 G96  0.2-  0.3+    161120 291  0.3-  0.0
161118 291  0.1+  0.6-    161119 G96  0.0   0.3-    161120 G96  0.3+  0.4-
161118 291  0.1-  0.0     161119 G96  0.1-  0.5+    161120 291  0.0   0.1+
161118 G96  0.1-  0.7+    161119 926  0.5-  0.6+    161120 291  0.0   0.2+
161118 G96  0.0   0.1+    161119 926  0.9-  0.4-
161118 G96  0.0   0.6+    161119 926  0.2-  0.2+

Ephemeris:
2016 WS                  a,e,i = 2.49, 0.55, 4                   q = 1.1188
Date    TT    R. A. (2000) Decl.     Delta      r     Elong.  Phase     V
2016 10 22    02 27 38.1 +01 04 36   0.2283  1.2178   165.8    11.5    22.4
...
2016 11 06    02 55 53.1 +06 08 17   0.1707  1.1596   169.8     8.7    21.6
...
2016 11 14    03 17 55.7 +10 50 58   0.1500  1.1383   172.6     6.4    21.2
...
2016 11 20    03 38 42.2 +15 18 42   0.1396  1.1272   175.5     3.9    20.8
2016 11 21    03 42 31.7 +16 06 56   0.1383  1.1258   176.1     3.4    20.8
2016 11 22    03 46 27.3 +16 55 55   0.1371  1.1245   176.6     2.9    20.7
...
2016 11 28    04 11 57.9 +21 57 57   0.1330  1.1196   178.8     1.1    20.5
...
2016 12 06    04 49 42.6 +28 18 18   0.1355  1.1201   174.2     5.1    20.8
...
2016 12 21    05 57 55.7 +35 54 47   0.1628  1.1432   167.5    10.7    21.5

A. U. Tomatic                (C) Copyright 2016 MPC           M.P.E.C. 2016-W29




More information about the Iaude mailing list